[[{"header":{"parameterUnit":"m.s-1","parameterCategory":2,"la1":30.2991,"la2":30.254,"lo1":-89.0895,"lo2":-89.0444,"dy":0.0017,"dx":0.0017,"nx":28,"ny":28,"refTime":"2024-04-12T21:00:00:Z","depth":"0","parameterNumber":2,"parameterNumberName":"U-component_of_CURRENTS"},"data":[0,0,0,0,0,0,0,0,0,0,0,0,0,0,0,0,0,0,0,0,0,0,0,0,0,0,0,0,0,0,0,0,0,0,0,0,0,0,0,0,0,0,0,0,0,0,0,0,0,0,0,0,0,0,0,0,0,0,0.2576,0.2577,0,0.2632,0.2633,0.2633,0.264,0.264,0.2639,0.2639,0.2682,0.2684,0.2685,0,0,0,0,0,0,0,0,0,0,0,0,0,0.2505,0.2506,0.2576,0.2577,0.2577,0.2632,0.2633,0.2633,0.264,0.264,0.2639,0.2638,0.2682,0.2684,0.2686,0,0,0,0,0,0,0,0,0,0,0,0,0,0.2545,0.2506,0.2576,0.2588,0.2589,0.2632,0.2633,0.2634,0.264,0.2639,0.2639,0.2638,0.2681,0.2683,0.2686,0.2716,0,0,0.2693,0.2694,0,0,0,0,0,0,0,0,0.2543,0.2548,0.2585,0.2587,0.2589,0.2629,0.2624,0.2661,0.264,0.262,0.2639,0.2638,0.2664,0.2668,0.268,0.2718,0.272,0.2694,0.2695,0.2696,0.2697,0,0,0,0,0,0,0,0.254,0.2546,0.2598,0.2586,0.2588,0.2601,0.2605,0.2631,0.2645,0.2622,0.2623,0.263,0.2665,0.2677,0.2681,0.2721,0.2694,0.2696,0.2697,0.2698,0.2811,0.2813,0,0,0,0,0,0,0.2534,0.2543,0.2596,0.2599,0.2564,0.2602,0.2608,0.2616,0.2645,0.2649,0.2631,0.263,0.2673,0.2678,0.2682,0.2752,0.2696,0.2698,0.27,0.281,0.2812,0.2813,0,0,0,0,0,0,0.2532,0.2538,0.2594,0.2573,0.2581,0.2604,0.2614,0.2618,0.263,0.2652,0.2655,0.2639,0.2673,0.2679,0.2722,0.2752,0.27,0.2702,0.2808,0.281,0.2813,0.287,0,0,0,0,0,0,0.253,0.2537,0.2544,0.2572,0.2582,0.2634,0.2615,0.2619,0.2636,0.2636,0.2661,0.2664,0.2673,0.2719,0.2725,0.2754,0.2704,0.2806,0.2809,0.2812,0.2866,0.2874,0.2881,0,0,0,0,0,0.2527,0.2547,0.2544,0.2551,0.2589,0.2635,0.2642,0.2655,0.2637,0.2659,0.2675,0.2663,0.2741,0.2723,0.2729,0.276,0.2805,0.2808,0.2812,0.2863,0.2873,0.2881,0,0,0,0,0,0,0.2523,0.255,0.2548,0.2574,0.2606,0.2637,0.2658,0.2657,0.2686,0.2683,0.2689,0.2695,0.2748,0.2745,0.2724,0.2801,0.2769,0.2774,0.2805,0.2815,0.2822,0.2819,0.2706,0,0,0,0,0,0.2523,0.2544,0.2573,0.2596,0.2611,0.2631,0.2648,0.2659,0.2685,0.2696,0.2712,0.2732,0.2769,0.2782,0.2815,0.2855,0.2895,0.2877,0.2884,0.289,0.2893,0.2968,0.2982,0.2825,0.2825,0.2825,0,0,0.2527,0.2546,0.2556,0.2596,0.2617,0.2659,0.264,0.2676,0.271,0.2698,0.2748,0.2765,0.2788,0.2842,0.2863,0.284,0.297,0.2894,0.2899,0.2899,0.2973,0.2989,0.3002,0.2827,0.2827,0.2826,0,0,0.256,0.2563,0.2597,0.2625,0.2664,0.2682,0.2691,0.2727,0.2743,0.2794,0.2796,0.2828,0.2876,0.29,0.2917,0.298,0.3012,0.2987,0.3016,0.309,0.3103,0.3116,0.3245,0.3268,0.2982,0.2982,0.2982,0,0.2562,0.2607,0.2617,0.2661,0.2685,0.2692,0.2737,0.2765,0.281,0.2827,0.2819,0.2895,0.2907,0.2971,0.2991,0.2998,0.3063,0.2981,0.31,0.3113,0.3124,0.3253,0.3278,0.2985,0.2985,0.2985,0.2984,0,0.2628,0.266,0.2685,0.2737,0.2767,0.2807,0.2841,0.2872,0.2881,0.2901,0.2963,0.2987,0.3029,0.3037,0.3034,0.3118,0.3151,0.3109,0.3078,0.3144,0.3276,0.3301,0.299,0.2989,0.2988,0.2987,0,0,0.2639,0.2714,0.2723,0.2748,0.2805,0.2833,0.2894,0.2946,0.2981,0.3016,0.3073,0.3116,0.3115,0.3134,0.3137,0.3181,0.3333,0.3178,0.3181,0.3309,0.3555,0.3511,0.3534,0.3314,0.3317,0.332,0.3636,0,0.2686,0.2765,0.2797,0.2865,0.2901,0.2926,0.298,0.3022,0.3058,0.3118,0.3137,0.3199,0.3159,0.3189,0.3231,0.3311,0.3392,0.3254,0.3469,0.3477,0.3429,0.3557,0.339,0.3649,0.366,0.3664,0.3667,0,0.2746,0.2782,0.2854,0.2912,0.2931,0.2973,0.3038,0.3094,0.317,0.3198,0.3249,0.328,0.3373,0.3316,0.3499,0.342,0.3497,0.3546,0.3558,0.3505,0.3476,0.3574,0.3694,0.3578,0.3705,0.3702,0.3699,0,0.2739,0.2823,0.2872,0.2894,0.2966,0.2996,0.3038,0.3109,0.3165,0.3262,0.3326,0.3411,0.3505,0.3581,0.3689,0.3617,0.3898,0.3815,0.3861,0.3863,0.3754,0.3737,0.3777,0.3952,0.3951,0.395,0.3949,0,0.2775,0.2811,0.2867,0.2888,0.2945,0.2993,0.3067,0.3119,0.3216,0.3305,0.337,0.3481,0.3574,0.3731,0.3777,0.3931,0.3992,0.3912,0.394,0.3774,0.3757,0.3671,0.3609,0.3962,0.3959,0.3957,0.3955,0,0.2776,0.2814,0.2868,0.2928,0.2945,0.2988,0.3082,0.314,0.3239,0.337,0.3418,0.3602,0.3814,0.3922,0.4108,0.4082,0.4086,0.4229,0.4057,0.4055,0.3903,0.385,0.3822,0.3719,0.4329,0.433,0.433,0,0.279,0.2814,0.288,0.2909,0.2938,0.3,0.3046,0.3135,0.3207,0.3446,0.3519,0.3775,0.3917,0.4197,0.423,0.4356,0.419,0.4247,0.4033,0.3911,0.3875,0.3702,0.3603,0.3964,0.3962,0.396,0.3958,0,0.2817,0.2838,0.2884,0.2935,0.2978,0.3022,0.3096,0.3151,0.329,0.3408,0.3614,0.3751,0.4029,0.4081,0.4238,0.4266,0.401,0.4207,0.4114,0.3629,0.341,0.3317,0.379,0.394,0.3942,0.3943,0.3944,0.3945,0.2848,0.2877,0.2938,0.2976,0.3016,0.3045,0.3058,0.3146,0.3253,0.3403,0.3602,0.374,0.3869,0.4053,0.4065,0.3959,0.3941,0.3806,0.3784,0.3644,0.3413,0.387,0.3999,0.4001,0.4002,0.4004,0.4005,0,0.2891,0.2922,0.297,0.3008,0.3019,0.304,0.3088,0.3079,0.3154,0.3323,0.3461,0.3569,0.3616,0.3681,0.3666,0.3539,0.3349,0.3446,0.3149,0.3095,0.3554,0.3399,0.3357,0.3357,0.3357,0.3357,0.3357,0.3357,0.2931,0.2981,0.2983,0.3002,0.3003,0.2974,0.297,0.2961,0.3028,0.3082,0.3124,0.3214,0.3354,0.34,0.3281,0.3204,0.2954,0.2833,0.2846,0.3146,0.3175,0.3203,0.3041,0.2924,0.2923,0.2227,0.2222,0.2218]},{"header":{"parameterUnit":"m.s-1","parameterCategory":2,"la1":30.2991,"la2":30.254,"lo1":-89.0895,"lo2":-89.0444,"dy":0.0017,"dx":0.0017,"nx":28,"ny":28,"refTime":"2024-04-12T21:00:00:Z","depth":"0","parameterNumber":3,"parameterNumberName":"V-component_of_CURRENTS"},"data":[0,0,0,0,0,0,0,0,0,0,0,0,0,0,0,0,0,0,0,0,0,0,0,0,0,0,0,0,0,0,0,0,0,0,0,0,0,0,0,0,0,0,0,0,0,0,0,0,0,0,0,0,0,0,0,0,0,0,0.0149,0.0149,0,0.0088,0.0087,0.0086,0.0039,0.0039,0.0039,0.0038,-0.0063,-0.0066,-0.0068,0,0,0,0,0,0,0,0,0,0,0,0,0,0.0163,0.0163,0.0149,0.0149,0.0148,0.0088,0.0087,0.0086,0.0039,0.0039,0.0039,0.0038,-0.0062,-0.0065,-0.0068,0,0,0,0,0,0,0,0,0,0,0,0,0,0.0133,0.0163,0.0149,0.0119,0.0116,0.0088,0.0087,0.0085,0.0039,0.0039,0.0038,0.0038,-0.0061,-0.0065,-0.0069,-0.0083,0,0,-0.008,-0.0081,0,0,0,0,0,0,0,0,0.0135,0.0133,0.0124,0.0121,0.0117,0.0072,0.0054,0.0028,0.0039,0.0066,0.0038,0.0038,-0.002,-0.0027,-0.004,-0.0088,-0.0092,-0.008,-0.0082,-0.0084,-0.0085,0,0,0,0,0,0,0,0.0137,0.0135,0.0123,0.0123,0.0119,0.0087,0.0082,0.0049,0.0024,0.0064,0.0061,0.0057,-0.0023,-0.0036,-0.0043,-0.0094,-0.008,-0.0083,-0.0086,-0.0087,-0.0191,-0.0192,0,0,0,0,0,0,0.0153,0.0137,0.0125,0.0121,0.0127,0.0087,0.0082,0.0086,0.0025,0.0016,0.0057,0.0055,-0.003,-0.0038,-0.0046,-0.01,-0.0084,-0.0087,-0.0089,-0.0191,-0.0191,-0.0192,0,0,0,0,0,0,0.0153,0.0152,0.0127,0.0129,0.0123,0.0088,0.0092,0.0085,0.0071,0.0021,0.0011,0.0051,-0.003,-0.0041,-0.0079,-0.0103,-0.0089,-0.0092,-0.019,-0.0191,-0.0192,-0.0186,0,0,0,0,0,0,0.0154,0.0153,0.0159,0.013,0.0124,0.0117,0.0092,0.0084,0.007,0.0066,0.0012,0.0003,-0.0032,-0.0073,-0.0082,-0.0108,-0.0095,-0.0189,-0.0191,-0.0192,-0.0185,-0.0187,-0.0187,0,0,0,0,0,0.0155,0.0168,0.016,0.0158,0.0134,0.0118,0.0112,0.0083,0.0071,0.0068,0.0027,0.0004,-0.0087,-0.0076,-0.0087,-0.0114,-0.0189,-0.019,-0.0191,-0.0185,-0.0186,-0.0187,0,0,0,0,0,0,0.0176,0.0163,0.0154,0.0162,0.0144,0.0111,0.0107,0.0088,0.0054,0.0049,0.0,-0.0012,-0.0056,-0.008,-0.0067,-0.0146,-0.0143,-0.0147,-0.0135,-0.0136,-0.0137,-0.0089,-0.0098,0,0,0,0,0,0.0185,0.0191,0.0171,0.0176,0.0171,0.014,0.0129,0.0111,0.008,0.0065,0.0026,-0.002,-0.007,-0.0096,-0.0135,-0.0174,-0.0155,-0.0199,-0.02,-0.0201,-0.0169,-0.0167,-0.0164,-0.0196,-0.0196,-0.0196,0,0,0.0195,0.0189,0.0192,0.0181,0.0165,0.0148,0.0132,0.0122,0.0098,0.0059,0.0018,-0.0021,-0.0079,-0.0128,-0.0151,-0.0152,-0.0182,-0.0202,-0.0203,-0.0169,-0.0168,-0.0164,-0.0161,-0.0197,-0.0197,-0.0197,0,0,0.0209,0.0213,0.0216,0.0203,0.0185,0.0164,0.0164,0.0133,0.0111,0.0076,0.003,-0.0011,-0.0079,-0.0128,-0.0163,-0.0188,-0.0184,-0.0212,-0.0185,-0.0185,-0.0181,-0.0178,-0.0145,-0.0139,-0.0217,-0.0217,-0.0217,0,0.0219,0.022,0.0214,0.0206,0.0196,0.0172,0.0163,0.0134,0.0091,0.0088,0.0067,-0.0014,-0.0078,-0.0133,-0.0158,-0.019,-0.0169,-0.0179,-0.0183,-0.018,-0.0176,-0.0144,-0.0137,-0.0217,-0.0217,-0.0217,-0.0217,0,0.0226,0.0223,0.0226,0.0206,0.0195,0.0189,0.0153,0.0143,0.0119,0.0097,0.0064,-0.0007,-0.0039,-0.0095,-0.0143,-0.0165,-0.015,-0.0181,-0.0175,-0.0172,-0.0139,-0.0132,-0.0217,-0.0217,-0.0217,-0.0217,0,0,0.0255,0.0235,0.0234,0.0234,0.0197,0.0199,0.0166,0.0148,0.0172,0.011,0.0139,0.0009,0.0014,-0.0024,-0.0086,-0.0113,-0.0104,-0.0136,-0.0136,-0.0091,-0.0066,-0.0054,-0.0045,-0.0133,-0.0132,-0.0131,-0.005,0,0.0259,0.0257,0.0236,0.0232,0.0231,0.0207,0.0199,0.0183,0.0176,0.0203,0.0134,0.0138,0.0025,0.0036,-0.0018,-0.0067,-0.0084,-0.012,-0.0084,-0.0082,-0.0062,-0.0037,-0.0064,0.0006,-0.0043,-0.0042,-0.0041,0,0.0266,0.0268,0.0269,0.0276,0.0278,0.0279,0.0308,0.0298,0.0312,0.0322,0.0312,0.029,0.024,0.0164,0.0083,0.0072,0.0012,-0.0037,-0.0036,-0.0012,-0.0056,-0.0007,0.0021,-0.0177,-0.003,-0.0031,-0.0032,0,0.0304,0.0292,0.0304,0.0299,0.0301,0.032,0.0331,0.0349,0.0403,0.0434,0.052,0.0432,0.0476,0.0347,0.0233,0.017,0.0185,0.0084,0.0044,0.0045,0.0038,0.0037,-0.0107,0.0052,0.0052,0.0052,0.0051,0,0.0321,0.0333,0.0338,0.0349,0.0418,0.039,0.0489,0.0495,0.0571,0.0702,0.0613,0.0735,0.0532,0.0513,0.0331,0.0243,0.0265,0.0083,0.0071,0.0039,0.0037,-0.0122,-0.0216,0.0055,0.0054,0.0053,0.0053,0,0.0374,0.0354,0.0397,0.0421,0.0442,0.0508,0.0621,0.0713,0.076,0.0944,0.0982,0.1005,0.0988,0.0786,0.0641,0.0438,0.0205,0.0263,0.0258,0.0243,-0.0038,-0.0128,-0.0201,-0.0272,0.0209,0.021,0.0211,0,0.0404,0.0428,0.0487,0.0558,0.0585,0.0681,0.0773,0.0814,0.0942,0.1141,0.1265,0.1316,0.1394,0.1177,0.0825,0.0541,0.0328,0.0322,0.0162,-0.0025,-0.0136,-0.0212,-0.0273,0.0158,0.0158,0.0159,0.0159,0,0.0506,0.0532,0.0587,0.0719,0.0821,0.0945,0.1081,0.1206,0.1317,0.1487,0.1736,0.1814,0.1629,0.1357,0.0954,0.0711,0.0178,0.0318,0.0113,-0.0179,-0.0257,-0.0339,0.0097,0.016,0.016,0.016,0.016,0.016,0.0626,0.0704,0.0793,0.0919,0.1041,0.1221,0.1344,0.1524,0.1753,0.2016,0.2069,0.2197,0.1747,0.1198,0.0889,0.0232,0.024,-0.0025,-0.0109,-0.0162,-0.0269,0.0197,0.0243,0.0243,0.0243,0.0244,0.0244,0,0.0796,0.0869,0.0997,0.1151,0.1303,0.1328,0.1561,0.1704,0.1995,0.222,0.2409,0.2208,0.169,0.1106,0.025,-0.0161,-0.0335,-0.0389,-0.0549,-0.0587,-0.0187,-0.0234,-0.0276,-0.0276,-0.0276,-0.0275,-0.0275,-0.0275,0.0907,0.1052,0.1094,0.1354,0.1462,0.1663,0.1794,0.202,0.2197,0.2453,0.248,0.2452,0.1942,0.055,-0.0409,-0.0624,-0.0887,-0.0926,-0.1031,-0.0834,-0.081,-0.0786,-0.0858,-0.1029,-0.103,-0.1429,-0.1433,-0.1436]}],[{"header":{"parameterUnit":"m.s-1","parameterCategory":2,"la1":30.2991,"la2":30.254,"lo1":-89.0895,"lo2":-89.0444,"dy":0.0017,"dx":0.0017,"nx":28,"ny":28,"refTime":"2024-04-12T21:00:00:Z","depth":"2","parameterNumber":2,"parameterNumberName":"U-component_of_CURRENTS"},"data":[0,0,0,0,0,0,0,0,0,0,0,0,0,0,0,0,0,0,0,0,0,0,0,0,0,0,0,0,0,0,0,0,0,0,0,0,0,0,0,0,0,0,0,0,0,0,0,0,0,0,0,0,0,0,0,0,0,0,0.216,0.2162,0,0.2227,0.2228,0.2228,0.2234,0.2234,0.2234,0.2234,0.2276,0.2277,0.2278,0,0,0,0,0,0,0,0,0,0,0,0,0,0.2079,0.2079,0.216,0.2162,0.2163,0.2227,0.2228,0.2228,0.2234,0.2234,0.2234,0.2234,0.2276,0.2277,0.2278,0,0,0,0,0,0,0,0,0,0,0,0,0,0.212,0.2079,0.216,0.2179,0.2182,0.2227,0.2228,0.2228,0.2234,0.2234,0.2234,0.2234,0.2275,0.2277,0.2279,0.2291,0,0,0.2284,0.2285,0,0,0,0,0,0,0,0,0.2117,0.2122,0.2175,0.2178,0.2182,0.2229,0.2215,0.225,0.2234,0.2206,0.2234,0.2234,0.2263,0.2265,0.2268,0.2293,0.2294,0.2284,0.2285,0.2286,0.2286,0,0,0,0,0,0,0,0.2114,0.2119,0.2179,0.2177,0.2181,0.22,0.2204,0.2221,0.2228,0.2209,0.2211,0.223,0.2263,0.2266,0.2269,0.2295,0.2284,0.2286,0.2287,0.2287,0.2366,0.2367,0,0,0,0,0,0,0.2119,0.2116,0.2177,0.2182,0.2157,0.2201,0.2206,0.2208,0.2228,0.2234,0.223,0.2231,0.2263,0.2267,0.2271,0.2382,0.2286,0.2288,0.2289,0.2365,0.2366,0.2367,0,0,0,0,0,0,0.2116,0.2123,0.2175,0.2158,0.2167,0.2203,0.2205,0.2209,0.2229,0.2247,0.225,0.2249,0.2263,0.2268,0.23,0.238,0.2288,0.229,0.2363,0.2365,0.2366,0.2543,0,0,0,0,0,0,0.2113,0.2121,0.2128,0.2157,0.2168,0.2212,0.2206,0.2211,0.2244,0.2244,0.2263,0.2266,0.2264,0.2297,0.2301,0.2381,0.2291,0.2362,0.2364,0.2366,0.2536,0.255,0.2562,0,0,0,0,0,0.211,0.2129,0.2127,0.2135,0.2173,0.2213,0.222,0.2241,0.2245,0.2257,0.227,0.2266,0.2312,0.23,0.2304,0.2386,0.2361,0.2363,0.2366,0.253,0.2547,0.2562,0,0,0,0,0,0,0.2103,0.2133,0.2131,0.2158,0.2186,0.2217,0.2241,0.2253,0.2273,0.2276,0.2281,0.2285,0.2335,0.2321,0.2307,0.2405,0.2336,0.2339,0.2459,0.2475,0.2488,0.2481,0.2293,0,0,0,0,0,0.2103,0.2119,0.215,0.2172,0.2187,0.2213,0.2235,0.2249,0.2274,0.2282,0.2294,0.231,0.2345,0.2378,0.2376,0.2445,0.2436,0.2493,0.2507,0.2519,0.2511,0.2557,0.2576,0.2375,0.2375,0.2374,0,0,0.2104,0.2128,0.2134,0.2171,0.2192,0.2243,0.2224,0.2264,0.2326,0.2285,0.2353,0.2344,0.2361,0.2429,0.2454,0.244,0.2579,0.2522,0.2533,0.2518,0.2562,0.2582,0.26,0.2376,0.2376,0.2376,0,0,0.2128,0.2136,0.216,0.2197,0.2243,0.2268,0.2285,0.2318,0.2349,0.2407,0.2399,0.2434,0.2478,0.2519,0.2549,0.2632,0.2626,0.2634,0.2739,0.2786,0.2804,0.2819,0.2877,0.2896,0.2671,0.2672,0.2672,0,0.213,0.2185,0.2176,0.2228,0.2285,0.2288,0.2354,0.2392,0.2432,0.2464,0.2445,0.2512,0.2531,0.2645,0.2681,0.2672,0.2687,0.2693,0.2809,0.2823,0.2836,0.2891,0.291,0.268,0.2679,0.2678,0.2678,0,0.2187,0.2245,0.2273,0.2342,0.2378,0.2448,0.2497,0.2532,0.2564,0.2593,0.2667,0.2681,0.2722,0.2755,0.276,0.2873,0.2851,0.2805,0.2781,0.2868,0.292,0.2936,0.2693,0.269,0.2687,0.2685,0,0,0.2193,0.2294,0.2321,0.2366,0.2464,0.2492,0.2597,0.2684,0.274,0.2777,0.2859,0.2936,0.2906,0.2932,0.2942,0.3004,0.3139,0.2962,0.296,0.3043,0.326,0.3148,0.3155,0.3121,0.3124,0.3126,0.3277,0,0.2267,0.2386,0.243,0.2551,0.2613,0.2662,0.2746,0.2806,0.286,0.2921,0.2965,0.3021,0.2994,0.3023,0.3084,0.3114,0.3182,0.3103,0.3139,0.314,0.305,0.3169,0.292,0.3023,0.3293,0.3295,0.3297,0,0.2359,0.2415,0.2547,0.2649,0.2679,0.2741,0.2856,0.2933,0.3019,0.3052,0.3112,0.3118,0.3239,0.3169,0.3302,0.3255,0.3265,0.3279,0.3284,0.3119,0.3057,0.2966,0.3041,0.3324,0.3322,0.332,0.3318,0,0.2388,0.2527,0.2633,0.268,0.2769,0.2823,0.2879,0.2963,0.3028,0.3131,0.3174,0.327,0.333,0.3375,0.342,0.3375,0.3533,0.3471,0.338,0.3374,0.3131,0.3097,0.3532,0.3532,0.3532,0.3531,0.3531,0,0.2492,0.2574,0.2644,0.2687,0.2772,0.2828,0.2921,0.2986,0.308,0.315,0.3228,0.3297,0.3378,0.3468,0.3482,0.3506,0.3594,0.3417,0.3409,0.3187,0.3157,0.3366,0.3345,0.3537,0.3536,0.3534,0.3533,0,0.2523,0.2599,0.2681,0.2759,0.2784,0.2832,0.293,0.299,0.3086,0.3189,0.3231,0.336,0.3461,0.3534,0.3623,0.358,0.3614,0.3582,0.3325,0.3281,0.341,0.3396,0.3513,0.351,0.3508,0.3506,0.3505,0,0.2563,0.2607,0.269,0.2724,0.2762,0.2833,0.2883,0.298,0.3045,0.3213,0.3262,0.3393,0.3436,0.3552,0.3512,0.3533,0.3582,0.3295,0.3135,0.343,0.3411,0.34,0.3389,0.2916,0.291,0.2905,0.2901,0,0.2585,0.2615,0.2664,0.272,0.2775,0.2818,0.2897,0.2944,0.3065,0.3119,0.3212,0.3261,0.3356,0.3244,0.3266,0.3232,0.3274,0.3186,0.3597,0.2936,0.2872,0.2852,0.286,0.2855,0.286,0.2863,0.2866,0.2868,0.2589,0.2612,0.2671,0.2706,0.2772,0.2792,0.2769,0.2822,0.2852,0.2865,0.3038,0.2996,0.3043,0.2906,0.2847,0.2806,0.2992,0.2865,0.2879,0.2899,0.2779,0.2712,0.2645,0.2649,0.2651,0.2654,0.2656,0,0.2552,0.2591,0.2647,0.2668,0.2666,0.2732,0.2759,0.2644,0.2567,0.2659,0.2639,0.2438,0.2389,0.2456,0.232,0.2318,0.2283,0.223,0.2169,0.2217,0.226,0.2104,0.1793,0.179,0.1787,0.1785,0,0,0.2542,0.2541,0.2543,0.2517,0.2551,0.2463,0.2432,0.227,0.2247,0.2093,0.2069,0.2233,0.2388,0.2046,0.2013,0.189,0.2034,0.1819,0.2518,0.2497,0.2535,0.2641,0.2458,0,0,0,0,0]},{"header":{"parameterUnit":"m.s-1","parameterCategory":2,"la1":30.2991,"la2":30.254,"lo1":-89.0895,"lo2":-89.0444,"dy":0.0017,"dx":0.0017,"nx":28,"ny":28,"refTime":"2024-04-12T21:00:00:Z","depth":"2","parameterNumber":3,"parameterNumberName":"V-component_of_CURRENTS"},"data":[0,0,0,0,0,0,0,0,0,0,0,0,0,0,0,0,0,0,0,0,0,0,0,0,0,0,0,0,0,0,0,0,0,0,0,0,0,0,0,0,0,0,0,0,0,0,0,0,0,0,0,0,0,0,0,0,0,0,-0.0014,-0.0015,0,-0.0063,-0.0064,-0.0065,-0.0108,-0.0108,-0.0109,-0.0109,-0.0209,-0.0211,-0.0213,0,0,0,0,0,0,0,0,0,0,0,0,0,-0.0016,-0.0015,-0.0014,-0.0015,-0.0015,-0.0063,-0.0064,-0.0065,-0.0108,-0.0108,-0.0109,-0.0109,-0.0208,-0.0211,-0.0214,0,0,0,0,0,0,0,0,0,0,0,0,0,-0.0037,-0.0015,-0.0014,-0.004,-0.0043,-0.0063,-0.0064,-0.0065,-0.0108,-0.0108,-0.0109,-0.0109,-0.0207,-0.021,-0.0214,-0.0229,0,0,-0.0225,-0.0227,0,0,0,0,0,0,0,0,-0.0036,-0.0038,-0.0036,-0.0038,-0.0041,-0.0078,-0.0101,-0.0122,-0.0108,-0.0086,-0.0109,-0.0109,-0.0167,-0.0174,-0.0186,-0.0234,-0.0238,-0.0226,-0.0228,-0.0229,-0.023,0,0,0,0,0,0,0,-0.0035,-0.0036,-0.0037,-0.0036,-0.004,-0.0069,-0.0072,-0.0106,-0.0127,-0.0088,-0.0091,-0.0092,-0.017,-0.0182,-0.0189,-0.024,-0.0225,-0.0229,-0.0231,-0.0232,-0.0321,-0.0321,0,0,0,0,0,0,-0.0019,-0.0034,-0.0035,-0.0038,-0.0036,-0.0068,-0.0072,-0.0068,-0.0126,-0.0134,-0.0091,-0.0093,-0.0176,-0.0184,-0.0192,-0.0246,-0.0229,-0.0233,-0.0235,-0.0321,-0.0321,-0.0321,0,0,0,0,0,0,-0.0019,-0.0019,-0.0033,-0.0036,-0.0039,-0.0067,-0.0063,-0.0069,-0.008,-0.0127,-0.0137,-0.0096,-0.0177,-0.0187,-0.0221,-0.0249,-0.0234,-0.0238,-0.0321,-0.0321,-0.0321,-0.0332,0,0,0,0,0,0,-0.0019,-0.0018,-0.0013,-0.0034,-0.0038,-0.004,-0.0062,-0.0069,-0.0079,-0.0082,-0.0134,-0.0144,-0.0178,-0.0215,-0.0224,-0.0254,-0.024,-0.032,-0.0321,-0.0321,-0.0332,-0.0333,-0.0334,0,0,0,0,0,-0.0019,-0.0007,-0.0013,-0.0013,-0.0029,-0.0039,-0.0044,-0.0068,-0.0078,-0.0081,-0.0117,-0.0142,-0.0224,-0.0218,-0.0229,-0.026,-0.032,-0.0321,-0.0321,-0.0331,-0.0333,-0.0334,0,0,0,0,0,0,-0.0006,-0.001,-0.0017,-0.0008,-0.002,-0.0045,-0.0047,-0.0063,-0.0092,-0.0096,-0.0144,-0.0156,-0.0195,-0.0217,-0.0209,-0.0283,-0.0277,-0.0279,-0.0281,-0.0282,-0.0283,-0.0228,-0.0244,0,0,0,0,0,0.0001,0.0009,-0.0003,0.0003,0.0002,-0.0022,-0.003,-0.0043,-0.0069,-0.0082,-0.0119,-0.016,-0.0205,-0.0233,-0.0265,-0.0306,-0.0292,-0.0331,-0.0332,-0.0333,-0.0293,-0.0291,-0.0288,-0.0322,-0.0322,-0.0322,0,0,0.0007,0.0006,0.001,0.0006,-0.0005,-0.0017,-0.0028,-0.0032,-0.0053,-0.0089,-0.0127,-0.016,-0.0212,-0.026,-0.0281,-0.0285,-0.0323,-0.0333,-0.0334,-0.0293,-0.0291,-0.0287,-0.0284,-0.0323,-0.0323,-0.0322,0,0,0.0021,0.0024,0.0032,0.0023,0.0015,-0.0004,-0.0001,-0.0023,-0.0042,-0.0073,-0.0113,-0.0147,-0.0214,-0.0258,-0.0291,-0.0311,-0.0321,-0.0335,-0.0311,-0.031,-0.0307,-0.0304,-0.0311,-0.0308,-0.0346,-0.0346,-0.0346,0,0.0026,0.0032,0.0032,0.003,0.0022,0.0003,-0.0001,-0.0027,-0.006,-0.0058,-0.0081,-0.0148,-0.021,-0.026,-0.0282,-0.0315,-0.0308,-0.031,-0.0311,-0.0307,-0.0303,-0.0311,-0.0307,-0.0347,-0.0347,-0.0347,-0.0346,0,0.004,0.0038,0.0043,0.003,0.0023,0.0019,-0.0009,-0.0014,-0.0036,-0.0052,-0.0076,-0.0144,-0.0167,-0.0224,-0.0271,-0.0288,-0.0291,-0.0307,-0.0305,-0.03,-0.0309,-0.0306,-0.0347,-0.0347,-0.0347,-0.0347,0,0,0.0062,0.0054,0.0053,0.0058,0.0024,0.0032,0.0003,-0.0005,0.0024,-0.0034,-0.0002,-0.0121,-0.0114,-0.0147,-0.0209,-0.0237,-0.0252,-0.0262,-0.0262,-0.0264,-0.0246,-0.0294,-0.0295,-0.0266,-0.0264,-0.0263,-0.0273,0,0.0067,0.0076,0.006,0.006,0.0064,0.0045,0.004,0.0035,0.0031,0.006,-0.0005,0.0,-0.0102,-0.0096,-0.0145,-0.02,-0.0236,-0.0246,-0.0252,-0.0251,-0.0291,-0.029,-0.0264,-0.0273,-0.027,-0.0269,-0.0269,0,0.0076,0.0085,0.0095,0.0111,0.0116,0.012,0.0159,0.0152,0.0172,0.0183,0.0177,0.0153,0.01,0.003,-0.0067,-0.0063,-0.0145,-0.0206,-0.0208,-0.0231,-0.0291,-0.0272,-0.0266,-0.0262,-0.0262,-0.0263,-0.0263,0,0.0108,0.0107,0.0126,0.0123,0.0137,0.0165,0.0181,0.0208,0.0257,0.0291,0.0359,0.0285,0.0295,0.0183,0.0032,-0.0,-0.0054,-0.0114,-0.0238,-0.0243,-0.0207,-0.021,-0.0164,-0.0164,-0.0164,-0.0164,-0.0164,0,0.0117,0.0135,0.016,0.0176,0.025,0.0235,0.0334,0.0351,0.042,0.0516,0.0449,0.051,0.0342,0.0279,0.0111,-0.0043,0.0005,-0.021,-0.0239,-0.0216,-0.022,-0.019,-0.0193,-0.0165,-0.0164,-0.0164,-0.0164,0,0.0155,0.015,0.02,0.0243,0.0271,0.034,0.0449,0.0533,0.058,0.0711,0.0738,0.0708,0.0608,0.0421,0.025,0.0083,-0.0076,-0.0147,-0.0116,-0.0143,-0.0288,-0.0291,-0.0275,-0.0277,-0.0278,-0.0279,-0.028,0,0.0175,0.0202,0.0282,0.0347,0.038,0.048,0.0566,0.0619,0.0718,0.083,0.0908,0.0859,0.0817,0.0541,0.0243,-0.0037,-0.008,-0.0184,-0.026,-0.0264,-0.0294,-0.0296,-0.0297,-0.0226,-0.0227,-0.0227,-0.0227,0,0.024,0.0275,0.0329,0.0455,0.0556,0.0661,0.0782,0.0879,0.096,0.1063,0.1155,0.1128,0.0872,0.0586,0.0205,0.0008,-0.0144,-0.0203,-0.0174,-0.0215,-0.0222,-0.0251,-0.0253,-0.023,-0.023,-0.023,-0.0229,-0.0229,0.031,0.0371,0.0449,0.0556,0.0686,0.0806,0.0882,0.1008,0.1138,0.1263,0.1278,0.125,0.0958,0.0443,0.0134,-0.0182,-0.0196,-0.0305,-0.0301,-0.0297,-0.0303,-0.0313,-0.0339,-0.034,-0.034,-0.034,-0.034,0,0.0353,0.0418,0.0541,0.0652,0.0768,0.0835,0.0997,0.1073,0.1193,0.1337,0.1383,0.1131,0.0819,0.0497,0.002,-0.0279,-0.0294,-0.0358,-0.0305,-0.0301,-0.0297,-0.0301,-0.0338,-0.0338,-0.0339,-0.034,0,0,0.0386,0.0452,0.0484,0.0647,0.0766,0.0902,0.0979,0.1124,0.1247,0.1339,0.1356,0.1308,0.0936,0.0594,0.0195,-0.0058,-0.0108,-0.0112,-0.0087,0.0027,0.0034,-0.0244,-0.0243,0,0,0,0,0]}],[{"header":{"parameterUnit":"m.s-1","parameterCategory":2,"la1":30.2991,"la2":30.254,"lo1":-89.0895,"lo2":-89.0444,"dy":0.0017,"dx":0.0017,"nx":28,"ny":28,"refTime":"2024-04-12T21:00:00:Z","depth":"4","parameterNumber":2,"parameterNumberName":"U-component_of_CURRENTS"},"data":[0,0,0,0,0,0,0,0,0,0,0,0,0,0,0,0,0,0,0,0,0,0,0,0,0,0,0,0,0,0,0,0,0,0,0,0,0,0,0,0,0,0,0,0,0,0,0,0,0,0,0,0,0,0,0,0,0,0,0.1211,0.1211,0,0.1249,0.1249,0.1249,0.1292,0.1293,0.1293,0.1294,0.1365,0.1366,0.1367,0,0,0,0,0,0,0,0,0,0,0,0,0,0.1159,0.116,0.1211,0.1211,0.1212,0.1248,0.1249,0.125,0.1292,0.1293,0.1294,0.1294,0.1364,0.1366,0.1368,0,0,0,0,0,0,0,0,0,0,0,0,0,0.1188,0.116,0.1211,0.1237,0.124,0.1248,0.1249,0.125,0.1292,0.1293,0.1294,0.1295,0.1364,0.1366,0.1368,0.1362,0,0,0.1374,0.1375,0,0,0,0,0,0,0,0,0.1186,0.119,0.1233,0.1235,0.1238,0.1266,0.1257,0.1289,0.1292,0.1273,0.1294,0.1295,0.1334,0.1338,0.1344,0.1366,0.1369,0.1374,0.1375,0.1376,0.1377,0,0,0,0,0,0,0,0.1184,0.1188,0.1226,0.1233,0.1237,0.1241,0.1246,0.1263,0.1299,0.1274,0.1277,0.1281,0.1336,0.1342,0.1346,0.137,0.1374,0.1376,0.1377,0.1378,0.1441,0.1441,0,0,0,0,0,0,0.1179,0.1187,0.1225,0.1227,0.1213,0.1241,0.1247,0.1257,0.1298,0.1305,0.128,0.1282,0.1338,0.1343,0.1348,0.1378,0.1376,0.1378,0.1379,0.144,0.1441,0.1441,0,0,0,0,0,0,0.1178,0.1182,0.1224,0.1207,0.1213,0.1241,0.1252,0.1257,0.1292,0.1302,0.1309,0.1313,0.1339,0.1346,0.1366,0.138,0.1379,0.1381,0.144,0.144,0.1441,0.1416,0,0,0,0,0,0,0.1176,0.1182,0.1196,0.1207,0.1213,0.1237,0.1251,0.1257,0.1291,0.1295,0.1332,0.1338,0.134,0.1363,0.1368,0.1383,0.1382,0.1439,0.144,0.1441,0.1416,0.1415,0.1415,0,0,0,0,0,0.1174,0.1175,0.1197,0.1202,0.123,0.1237,0.1241,0.1264,0.1292,0.1302,0.132,0.1338,0.1373,0.1364,0.1371,0.1386,0.1438,0.144,0.1441,0.1416,0.1415,0.1415,0,0,0,0,0,0,0.1156,0.118,0.1204,0.1214,0.1233,0.1244,0.1255,0.1281,0.1305,0.1317,0.1336,0.1341,0.137,0.1381,0.1371,0.1408,0.1413,0.1415,0.1392,0.1392,0.1391,0.1377,0.1384,0,0,0,0,0,0.1161,0.1171,0.1197,0.1206,0.1219,0.1249,0.1262,0.128,0.1297,0.1311,0.1333,0.1357,0.1374,0.1386,0.1403,0.1416,0.1478,0.1434,0.1434,0.1433,0.1427,0.1583,0.1597,0.1445,0.1445,0.1445,0,0,0.1157,0.117,0.1179,0.1204,0.1224,0.1226,0.1259,0.128,0.1282,0.1314,0.133,0.1361,0.138,0.1392,0.1407,0.1405,0.1499,0.1435,0.1434,0.1427,0.1586,0.1601,0.1615,0.1445,0.1445,0.1445,0,0,0.1124,0.1171,0.116,0.1176,0.1205,0.1226,0.1241,0.127,0.1289,0.1313,0.1331,0.137,0.1399,0.1405,0.1414,0.1426,0.1498,0.144,0.1419,0.1571,0.1586,0.16,0.1655,0.1674,0.1433,0.1433,0.1433,0,0.1118,0.1113,0.1158,0.1146,0.1162,0.1228,0.1223,0.1243,0.1273,0.129,0.1319,0.1391,0.1405,0.1423,0.141,0.1426,0.1501,0.1416,0.1574,0.1589,0.1603,0.1658,0.1679,0.1432,0.1432,0.1432,0.1433,0,0.1065,0.1074,0.1071,0.1087,0.1112,0.1122,0.1161,0.1199,0.1255,0.1272,0.1333,0.137,0.1436,0.1426,0.1411,0.1498,0.1511,0.1564,0.1577,0.1618,0.1671,0.1694,0.1431,0.1431,0.1431,0.1432,0,0,0.1001,0.1031,0.1027,0.1046,0.1089,0.1108,0.1131,0.1169,0.1234,0.1261,0.1346,0.1337,0.1414,0.1429,0.1451,0.1522,0.1657,0.1571,0.158,0.1626,0.1947,0.1757,0.1764,0.1767,0.1771,0.1775,0.1928,0,0.0947,0.0921,0.0954,0.0962,0.0967,0.1052,0.1079,0.1128,0.122,0.1322,0.1359,0.1468,0.1402,0.1503,0.1549,0.1676,0.1723,0.1606,0.19,0.1906,0.1736,0.1787,0.179,0.1945,0.1951,0.1954,0.1957,0,0.086,0.0871,0.086,0.0935,0.0951,0.0988,0.1122,0.1152,0.1279,0.1373,0.1475,0.157,0.1663,0.1661,0.1834,0.178,0.1844,0.1897,0.1908,0.1756,0.176,0.1909,0.1999,0.1996,0.1993,0.199,0.1987,0,0.0777,0.0802,0.0807,0.0824,0.0913,0.0971,0.1043,0.1168,0.1257,0.1464,0.1607,0.1721,0.1865,0.1975,0.2035,0.2013,0.222,0.2244,0.2092,0.2078,0.2216,0.2201,0.2362,0.2362,0.2362,0.2361,0.2361,0,0.0687,0.0688,0.0793,0.08,0.0861,0.0949,0.1088,0.1172,0.1385,0.1497,0.1656,0.179,0.197,0.2089,0.2122,0.2148,0.2317,0.2082,0.2121,0.2192,0.2172,0.223,0.2212,0.2367,0.2366,0.2365,0.2364,0,0.0566,0.0616,0.0645,0.0772,0.0817,0.0873,0.1112,0.1235,0.1432,0.1623,0.172,0.1925,0.2076,0.2162,0.235,0.2261,0.2326,0.2275,0.2282,0.2321,0.2056,0.2036,0.2187,0.2182,0.2177,0.2174,0.2171,0,0.0497,0.0493,0.0616,0.0678,0.075,0.0891,0.0998,0.122,0.1339,0.1654,0.17,0.1953,0.2053,0.2134,0.2232,0.2298,0.224,0.2253,0.2166,0.2023,0.2048,0.2034,0.2019,0.2164,0.2163,0.2162,0.2161,0,0.0387,0.0439,0.0483,0.0594,0.0718,0.0858,0.1012,0.1104,0.1348,0.156,0.1701,0.1831,0.195,0.204,0.2081,0.211,0.2262,0.2208,0.2217,0.2135,0.1998,0.2023,0.2014,0.2146,0.2148,0.2149,0.215,0,0.0326,0.0335,0.0414,0.0507,0.0635,0.0754,0.0887,0.1041,0.1184,0.1485,0.1516,0.1746,0.1917,0.194,0.1983,0.2001,0.1983,0.192,0.1943,0.1961,0.1811,0.1597,0.166,0,0,0,0,0,0.0276,0.0277,0.0343,0.0446,0.0572,0.0654,0.0842,0.0988,0.1203,0.1255,0.1395,0.1501,0.1645,0.1733,0.1712,0.1873,0.1971,0.1837,0.1903,0.2063,0.208,0.192,0,0,0,0,0,0,0.0244,0.0276,0.0289,0.0352,0.0425,0.057,0.069,0.0871,0.0885,0.1112,0.1172,0.1372,0.1492,0.1626,0.1666,0.1696,0.1701,0.1966,0.1962,0.2053,0.2069,0.2083,0.1924,0,0,0,0,0]},{"header":{"parameterUnit":"m.s-1","parameterCategory":2,"la1":30.2991,"la2":30.254,"lo1":-89.0895,"lo2":-89.0444,"dy":0.0017,"dx":0.0017,"nx":28,"ny":28,"refTime":"2024-04-12T21:00:00:Z","depth":"4","parameterNumber":3,"parameterNumberName":"V-component_of_CURRENTS"},"data":[0,0,0,0,0,0,0,0,0,0,0,0,0,0,0,0,0,0,0,0,0,0,0,0,0,0,0,0,0,0,0,0,0,0,0,0,0,0,0,0,0,0,0,0,0,0,0,0,0,0,0,0,0,0,0,0,0,0,-0.0001,-0.0001,0,-0.0024,-0.0024,-0.0024,-0.0051,-0.0051,-0.0051,-0.0052,-0.0125,-0.0127,-0.0128,0,0,0,0,0,0,0,0,0,0,0,0,0,-0.0013,-0.0012,-0.0001,-0.0001,-0.0001,-0.0024,-0.0024,-0.0024,-0.0051,-0.0051,-0.0052,-0.0052,-0.0125,-0.0127,-0.0129,0,0,0,0,0,0,0,0,0,0,0,0,0,-0.002,-0.0012,-0.0001,-0.0016,-0.0018,-0.0023,-0.0024,-0.0024,-0.0051,-0.0051,-0.0052,-0.0052,-0.0124,-0.0126,-0.0129,-0.0135,0,0,-0.0137,-0.0138,0,0,0,0,0,0,0,0,-0.0019,-0.0019,-0.0014,-0.0015,-0.0017,-0.0034,-0.0055,-0.0064,-0.0051,-0.0039,-0.0052,-0.0052,-0.0098,-0.0103,-0.0107,-0.0139,-0.0142,-0.0137,-0.0138,-0.0139,-0.014,0,0,0,0,0,0,0,-0.0019,-0.0019,-0.0011,-0.0014,-0.0016,-0.0033,-0.0035,-0.0057,-0.0068,-0.004,-0.0042,-0.0043,-0.01,-0.0104,-0.0109,-0.0143,-0.0137,-0.0139,-0.014,-0.0141,-0.016,-0.0159,0,0,0,0,0,0,-0.0011,-0.0018,-0.001,-0.0011,-0.0018,-0.0033,-0.0034,-0.0029,-0.0066,-0.0072,-0.0042,-0.0044,-0.01,-0.0106,-0.0112,-0.0075,-0.0139,-0.0142,-0.0143,-0.0161,-0.0159,-0.0158,0,0,0,0,0,0,-0.0012,-0.001,-0.0009,-0.0015,-0.0016,-0.0031,-0.0026,-0.0029,-0.0035,-0.0067,-0.0074,-0.0045,-0.0101,-0.0108,-0.0117,-0.008,-0.0143,-0.0145,-0.0162,-0.016,-0.0159,-0.0031,0,0,0,0,0,0,-0.0012,-0.001,-0.0006,-0.0014,-0.0015,-0.0004,-0.0025,-0.0029,-0.0034,-0.0037,-0.0072,-0.0079,-0.0102,-0.0113,-0.0119,-0.0084,-0.0147,-0.0163,-0.0161,-0.0159,-0.0036,-0.0025,-0.0016,0,0,0,0,0,-0.0012,0.0001,-0.0006,-0.0005,-0.0008,-0.0003,-0.0005,-0.0019,-0.0034,-0.0028,-0.0047,-0.0078,-0.0105,-0.0114,-0.0122,-0.0087,-0.0164,-0.0162,-0.0159,-0.0041,-0.0027,-0.0016,0,0,0,0,0,0,-0.0006,-0.0001,-0.0008,0.0004,0.0003,-0.0007,-0.0003,-0.0016,-0.0027,-0.003,-0.0066,-0.0074,-0.0068,-0.0101,-0.0109,-0.0089,-0.014,-0.0139,-0.0047,-0.0035,-0.0024,-0.0004,-0.0149,0,0,0,0,0,-0.0001,0.0011,0.0009,0.0018,0.0021,0.0007,0.0006,-0.0001,-0.0011,-0.0016,-0.0038,-0.0059,-0.0065,-0.0068,-0.0088,-0.0077,-0.0141,-0.0062,-0.0051,-0.0042,-0.0031,-0.012,-0.0117,-0.0151,-0.0151,-0.0151,0,0,0.0002,0.0007,0.0012,0.002,0.0018,0.0045,0.0006,0.0012,0.0045,-0.0023,0.0005,-0.0029,-0.0057,-0.0038,-0.0038,-0.0058,-0.0061,-0.0039,-0.003,-0.0025,-0.0118,-0.0115,-0.0112,-0.0149,-0.0149,-0.015,0,0,0.0036,0.0023,0.0055,0.0062,0.0068,0.0065,0.007,0.0066,0.0074,0.0089,0.0057,0.005,0.003,0.0032,0.0028,0.008,-0.001,0.0065,0.0145,0.006,0.0062,0.0062,0.0005,-0.0,0.0078,0.0079,0.0079,0,0.0041,0.0087,0.0063,0.01,0.012,0.0082,0.013,0.0134,0.0129,0.0139,0.0114,0.009,0.0073,0.0102,0.0134,0.0108,0.0037,0.0106,0.0073,0.0072,0.0071,0.0012,0.0004,0.0085,0.0084,0.0084,0.0083,0,0.0106,0.0145,0.0164,0.0205,0.0216,0.0247,0.0254,0.0262,0.0254,0.025,0.0258,0.0226,0.0206,0.0211,0.0199,0.0197,0.0145,0.009,0.0044,0.0082,0.0018,0.0008,0.0094,0.0092,0.009,0.0088,0,0,0.0127,0.02,0.021,0.0251,0.028,0.0294,0.0347,0.038,0.0384,0.0384,0.0389,0.0414,0.0358,0.0349,0.0315,0.0271,0.0228,0.0191,0.0184,0.0141,0.004,0.0038,0.0026,0.0146,0.0144,0.0143,0.0007,0,0.0196,0.0294,0.0313,0.0401,0.0453,0.0444,0.0486,0.0498,0.0479,0.0461,0.0444,0.042,0.0422,0.0389,0.0357,0.0239,0.0202,0.027,0.0004,-0.0002,-0.0006,0.0015,0.0138,-0.0001,-0.0004,-0.0006,-0.0007,0,0.0272,0.0326,0.0434,0.0506,0.0523,0.0563,0.0586,0.0611,0.0583,0.0559,0.0533,0.0472,0.0453,0.0404,0.0272,0.0302,0.0198,0.0111,0.0101,0.0047,-0.0024,-0.0056,-0.0027,-0.0025,-0.0024,-0.0023,-0.0021,0,0.031,0.0416,0.0506,0.0532,0.0595,0.0637,0.0656,0.0643,0.0645,0.0592,0.0554,0.0502,0.0446,0.0326,0.0198,0.0204,0.0005,-0.0026,-0.0114,-0.0116,-0.0131,-0.0131,-0.0136,-0.0136,-0.0136,-0.0136,-0.0135,0,0.0388,0.0455,0.0529,0.0573,0.0636,0.067,0.0701,0.0694,0.0668,0.0647,0.0593,0.0545,0.041,0.0292,0.0178,0.0014,-0.0014,-0.0092,-0.0153,-0.007,-0.0062,-0.0138,-0.0136,-0.0141,-0.014,-0.0139,-0.0138,0,0.0414,0.0481,0.0563,0.0641,0.0661,0.0691,0.0725,0.0725,0.0704,0.0663,0.0646,0.0551,0.0404,0.0272,0.0051,-0.0018,-0.0182,-0.0239,-0.0118,-0.0172,-0.0237,-0.0227,-0.0349,-0.035,-0.0351,-0.0352,-0.0353,0,0.0439,0.0489,0.0574,0.06,0.0639,0.0687,0.0708,0.0728,0.0717,0.0667,0.0637,0.0511,0.0435,0.0151,0.0004,-0.0215,-0.024,-0.0318,-0.0267,-0.0213,-0.0261,-0.0249,-0.0238,-0.0355,-0.0355,-0.0355,-0.0356,0,0.0445,0.0474,0.0523,0.0584,0.0629,0.0664,0.0701,0.0701,0.0708,0.0699,0.0615,0.0493,0.0325,0.014,-0.0033,-0.0187,-0.0262,-0.033,-0.0328,-0.0281,-0.0222,-0.0265,-0.0253,-0.0359,-0.0359,-0.0358,-0.0358,0,0.0417,0.0436,0.0501,0.0551,0.0601,0.0634,0.066,0.0667,0.067,0.064,0.0605,0.0459,0.0375,0.015,-0.0012,-0.0157,-0.0186,-0.0222,-0.0226,-0.0224,-0.0135,-0.0038,-0.0167,0,0,0,0,0,0.0392,0.0422,0.046,0.0527,0.0578,0.0617,0.0647,0.0669,0.0692,0.0637,0.0629,0.0483,0.0262,0.016,0.0013,-0.0043,-0.0223,-0.0221,-0.0268,-0.038,-0.0375,-0.0291,0,0,0,0,0,0,0.0376,0.0419,0.0452,0.0503,0.0544,0.0602,0.063,0.0642,0.061,0.0613,0.0493,0.0457,0.0232,0.0354,0.0016,-0.0029,-0.0078,-0.0319,-0.0322,-0.0382,-0.0378,-0.0375,-0.0287,0,0,0,0,0]}]]